Date String (YYYY-MM-DD hh:mm:ss) UTC,Instrument flags,Ambient pressure (hPa),Sample flow (lpm),Bypass flow (lpm),Sample temperature (°C),Ambient temperature (°C),ASC tube jacket temperature (°C),LED temperature (°C),Box temperature (°C),Sample RH (%),Span deviation,Mass concentration (μg/m³),Mass concentration (μg/m³),Mass concentration (μg/m³)
DateTimeUTC,F1_M11,P_M11,Q1_M11,Q2_M11,T1_M11,T2_M11,T3_M11,T4_M11,T5_M11,U1_M11,ZSPAN_M11,X0_M11,X2_M11,X1_M11
2023-05-02 23:00:00,,0828.4,5.01,0.00,30.2,28.9,00.0,38.5,31.8,15.6,0004.5,0021.43,0009.48,0007.67
2023-05-02 23:01:00,,0828.3,5.00,0.00,30.2,28.9,00.0,38.5,31.8,15.8,0004.8,0021.77,0009.42,0007.61
2023-05-02 23:02:00,,0828.3,5.00,0.00,30.2,28.9,00.0,38.5,31.7,15.8,0004.9,0021.98,0009.32,0007.51
2023-05-02 23:03:00,,0828.3,5.00,0.00,30.3,29.0,00.0,38.5,31.8,15.7,0004.8,0022.25,0009.19,0007.39
2023-05-02 23:04:00,,0828.4,4.99,0.00,30.3,29.0,00.0,38.5,31.9,15.8,0004.4,0023.07,0009.08,0007.29
2023-05-02 23:05:00,,0828.4,5.00,0.00,30.3,29.0,00.0,38.6,31.9,15.8,0004.2,0022.41,0008.97,0007.21
2023-05-02 23:06:00,,0828.4,5.00,0.00,30.3,29.0,00.0,38.6,31.9,15.8,0004.3,0021.83,0008.82,0007.14
2023-05-02 23:07:00,,0828.4,5.00,0.00,30.3,29.0,00.0,38.6,31.9,15.7,0004.2,0022.18,0008.77,0007.06
2023-05-02 23:08:00,,0828.4,5.01,0.00,30.3,29.1,00.0,38.6,31.9,15.8,0004.6,0023.83,0008.68,0006.99
2023-05-02 23:09:00,,0828.4,5.00,0.00,30.4,29.1,00.0,38.6,32.0,16.0,0004.7,0023.51,0008.62,0006.90
2023-05-02 23:10:00,,0828.4,4.98,0.00,30.4,29.1,00.0,38.6,31.9,16.0,0004.9,0022.98,0008.54,0006.79
2023-05-02 23:11:00,,0828.5,4.99,0.00,30.4,29.1,00.0,38.7,31.9,15.8,0004.7,0022.69,0008.48,0006.73
2023-05-02 23:12:00,,0828.5,5.00,0.00,30.4,29.2,00.0,38.7,32.0,15.5,0004.8,0021.98,0008.42,0006.66
2023-05-02 23:13:00,,0828.4,5.00,0.00,30.4,29.2,00.0,38.7,32.0,15.4,0004.4,0021.68,0008.44,0006.64
2023-05-02 23:14:00,,0828.4,5.00,0.00,30.4,29.2,00.0,38.7,32.0,15.5,0004.3,0021.52,0008.43,0006.60
2023-05-02 23:15:00,,0828.4,5.00,0.00,30.5,29.2,00.0,38.7,32.0,15.6,0004.6,0019.73,0008.36,0006.56
2023-05-02 23:16:00,,0828.4,5.00,0.00,30.5,29.2,00.0,38.8,32.0,15.7,0004.5,0018.89,0008.28,0006.51
2023-05-02 23:17:00,,0828.4,4.99,0.00,30.5,29.3,00.0,38.8,32.0,15.4,0004.3,0018.68,0008.29,0006.47
2023-05-02 23:18:00,,0828.4,5.00,0.00,30.5,29.3,00.0,38.8,32.0,15.1,0004.5,0019.41,0008.27,0006.44
2023-05-02 23:19:00,,0828.4,5.00,0.00,30.5,29.2,00.0,38.8,32.0,15.1,0004.4,0018.92,0008.26,0006.43
2023-05-02 23:20:00,,0828.4,4.98,0.00,30.5,27.6,00.0,38.7,31.9,14.9,0004.5,0019.97,0008.30,0006.44
2023-05-02 23:21:00,,0828.4,5.02,0.00,30.4,25.6,00.0,38.6,31.6,14.9,0004.6,0020.46,0008.40,0006.48
2023-05-02 23:22:00,,0828.4,5.02,0.00,30.3,25.3,00.0,38.5,31.4,14.9,0004.4,0020.50,0008.41,0006.51
2023-05-02 23:23:00,,0828.5,4.98,0.00,30.2,25.5,00.0,38.5,31.2,15.1,0004.2,0021.24,0008.40,0006.53
2023-05-02 23:24:00,,0828.5,4.99,0.00,30.1,26.0,00.0,38.5,31.2,15.4,0004.3,0021.08,0008.37,0006.53
2023-05-02 23:25:00,,0828.6,5.01,0.00,30.0,26.4,00.0,38.5,31.2,15.4,0004.2,0020.98,0008.35,0006.53
2023-05-02 23:26:00,,0828.6,5.01,0.00,30.0,26.8,00.0,38.5,31.3,15.6,0004.0,0021.94,0008.39,0006.54
2023-05-02 23:27:00,,0828.6,5.01,0.00,30.0,27.1,00.0,38.4,31.3,15.8,0004.2,0024.09,0008.45,0006.54
2023-05-02 23:28:00,,0828.6,4.99,0.00,30.0,27.4,00.0,38.4,31.3,16.0,0004.1,0024.92,0008.41,0006.54
2023-05-02 23:29:00,,0828.7,4.99,0.00,29.9,27.6,00.0,38.4,31.4,16.0,0004.1,0023.50,0008.30,0006.50
2023-05-02 23:30:00,,0828.6,5.00,0.00,29.9,27.8,00.0,38.4,31.4,15.9,0004.0,0023.51,0008.26,0006.45
2023-05-02 23:31:00,,0828.6,5.02,0.00,29.9,28.0,00.0,38.4,31.4,16.0,0004.2,0022.03,0008.22,0006.38
2023-05-02 23:32:00,,0828.6,5.01,0.00,30.0,28.1,00.0,38.4,31.4,16.1,0004.2,0021.88,0008.11,0006.31
2023-05-02 23:33:00,,0828.6,5.00,0.00,30.0,28.2,00.0,38.4,31.5,16.2,0004.1,0022.52,0008.05,0006.21
2023-05-02 23:34:00,,0828.6,4.99,0.00,30.0,28.3,00.0,38.4,31.5,16.3,0004.3,0024.07,0008.06,0006.11
2023-05-02 23:35:00,,0828.6,5.00,0.00,30.0,28.4,00.0,38.4,31.5,16.3,0004.2,0024.17,0007.93,0006.00
2023-05-02 23:36:00,,0828.6,5.00,0.00,30.0,28.5,00.0,38.4,31.5,16.3,0004.2,0025.03,0007.80,0005.89
2023-05-02 23:37:00,,0828.6,5.00,0.00,30.0,28.5,00.0,38.4,31.6,16.4,0004.3,0024.96,0007.75,0005.78
2023-05-02 23:38:00,,0828.6,5.00,0.00,30.0,28.5,00.0,38.4,31.6,16.5,0003.9,0023.41,0007.63,0005.67
2023-05-02 23:39:00,,0828.6,5.00,0.00,30.0,28.6,00.0,38.4,31.6,16.5,0004.1,0022.55,0007.54,0005.56
2023-05-02 23:40:00,,0828.6,5.00,0.00,30.0,28.6,00.0,38.4,31.6,16.5,0004.1,0022.64,0007.48,0005.47
2023-05-02 23:41:00,,0828.6,5.01,0.00,30.0,28.6,00.0,38.4,31.6,16.5,0001.5,0022.26,0007.55,0005.41
2023-05-02 23:42:00,,0828.7,5.00,0.00,30.0,28.5,00.0,38.4,31.6,16.5,0000.6,0024.13,0007.58,0005.36
2023-05-02 23:43:00,,0828.7,4.99,0.00,30.0,28.5,00.0,38.4,31.6,16.5,0003.1,0024.66,0007.51,0005.29
2023-05-02 23:44:00,,0828.7,5.00,0.00,30.0,28.5,00.0,38.4,31.5,16.6,0001.7,0024.32,0007.47,0005.25
2023-05-02 23:45:00,,0828.7,5.00,0.00,30.0,28.5,00.0,38.4,31.5,16.6,0000.0,0022.42,0007.39,0005.22
2023-05-02 23:46:00,,0828.7,5.00,0.00,30.0,28.5,00.0,38.4,31.5,17.1,0000.0,0022.47,0007.43,0005.23
2023-05-02 23:47:00,,0828.7,5.00,0.00,30.0,28.4,00.0,38.4,31.5,16.7,0000.0,0021.82,0007.51,0005.25
2023-05-02 23:48:00,,0828.7,5.00,0.00,30.0,28.4,00.0,38.4,31.5,16.7,0002.2,0021.44,0007.55,0005.30
2023-05-02 23:49:00,,0828.7,5.00,0.00,30.0,28.4,00.0,38.4,31.5,16.3,0004.5,0021.95,0007.60,0005.36
2023-05-02 23:50:00,,0828.7,5.00,0.00,30.0,28.4,00.0,38.4,31.5,16.6,0004.3,0023.35,0007.66,0005.41
2023-05-02 23:51:00,,0828.7,4.99,0.00,29.9,28.4,00.0,38.4,31.5,16.5,0004.4,0024.18,0007.71,0005.48
2023-05-02 23:52:00,,0828.7,5.01,0.00,29.9,28.4,00.0,38.4,31.5,16.5,0004.3,0024.36,0007.61,0005.53
2023-05-02 23:53:00,,0828.7,5.00,0.00,29.9,28.4,00.0,38.4,31.5,16.5,0004.2,0023.25,0007.40,0005.56
2023-05-02 23:54:00,,0828.8,5.00,0.00,29.9,28.4,00.0,38.4,31.4,16.4,0004.3,0022.98,0007.44,0005.61
2023-05-02 23:55:00,,0828.8,4.99,0.00,29.9,28.4,00.0,38.4,31.5,16.3,0004.4,0023.85,0007.51,0005.67
2023-05-02 23:56:00,,0828.8,5.00,0.00,29.9,28.4,00.0,38.4,31.5,16.3,0004.2,0024.69,0007.54,0005.72
2023-05-02 23:57:00,,0828.8,5.02,0.00,29.9,28.4,00.0,38.4,31.4,16.2,0003.9,0024.87,0007.59,0005.79
2023-05-02 23:58:00,,0828.9,5.01,0.00,29.9,28.4,00.0,38.4,31.5,16.0,0003.5,0024.50,0007.57,0005.84
2023-05-02 23:59:00,,0828.9,4.98,0.00,29.9,28.4,00.0,38.4,31.4,15.9,0002.8,0024.89,0007.61,0005.89
